User: anonymous   Login
Location: Budapest
(47.4979°N, 19.0402°E)
Time: 02:55:26
(UTC+02:00)
Language:

Vanguard 2 Rocket - Orbit

View from above orbital plane
View from above orbital plane
View from above satellite
View from above satellite

Ground track
Ground track

The orbit data is extracted from the following two-line orbital elements,

1 00012U 59001B   18229.87043461  .00000075  00000-0  36838-4 0  9997
2 00012  32.8975 173.5086 1666820 155.8406 213.0385 11.44251978445846
Epoch (UTC): 17 August 2018 20:53:25
Eccentricity: 0.1666820
inclination: 32.8975°
perigee height: 554 km
apogee height: 3327 km
right ascension of ascending node: 173.5086°
argument of perigee: 155.8406°
revolutions per day: 11.44251978
mean anomaly at epoch: 213.0385°
orbit number at epoch: 44584

The dashed part of the orbit path shows where the satellite is in the earth's shadow,  

DLR